WetterOnline ( https://www.wetteronline.de )

Wetter aktuell Konstanz

Aktuelles Wetter: Konstanz (397m)

6-stündlich | Neueste Meldungen
Ortszeit Temperatur Wetter
Mi, 23.10. 14:00 17.4° C leicht bewölkt
Mi, 23.10. 8:00 11.3° C bedeckt
Mi, 23.10. 2:00 12.7° C bedeckt
Di, 22.10. 20:00 13.5° C bedeckt
Di, 22.10. 14:00 15.1° C bedeckt
Di, 22.10. 8:00 10.8° C bedeckt
Di, 22.10. 2:00 13.1° C bewölkt
Mo, 21.10. 20:00 14.8° C bedeckt
Ortszeit Temperatur Wetter
Mi, 23.10. 15:00 18.3° C leicht bewölkt
Mi, 23.10. 14:50 18.3° C leicht bewölkt
Mi, 23.10. 14:40 18.1° C leicht bewölkt
Mi, 23.10. 14:30 17.6° C wolkenlos
Mi, 23.10. 14:20 17.6° C wolkenlos
Mi, 23.10. 14:10 17.8° C fast wolkenlos
Mi, 23.10. 14:00 17.4° C leicht bewölkt
Mi, 23.10. 13:30 15.1° C leicht bewölkt
Mi, 23.10. 13:00 14.9° C wolkenlos
Mi, 23.10. 12:30 14.1° C wolkenlos
Mi, 23.10. 12:00 12.9° C leicht bewölkt
Ortszeit Relative Feuchte Sichtweite
Mi, 23.10. 14:00 62% 22 km
Mi, 23.10. 8:00 92% 5.0 km
Mi, 23.10. 2:00 91% 6 km
Di, 22.10. 20:00 91% 11 km
Di, 22.10. 14:00 78% 27 km
Di, 22.10. 8:00 99% 3.7 km
Di, 22.10. 2:00 97% 13 km
Mo, 21.10. 20:00 93% 12 km
Ortszeit Relative Feuchte Sichtweite
Mi, 23.10. 15:00 61% 24 km
Mi, 23.10. 14:50 61% -
Mi, 23.10. 14:40 62% -
Mi, 23.10. 14:30 64% 23 km
Mi, 23.10. 14:20 64% -
Mi, 23.10. 14:10 63% -
Mi, 23.10. 14:00 62% 22 km
Mi, 23.10. 13:30 72% 16 km
Mi, 23.10. 13:00 73% 16 km
Mi, 23.10. 12:30 73% 15 km
Mi, 23.10. 12:00 79% 12 km
Ortszeit Niederschlagsmenge Niederschlagsart
Mi, 23.10. 14:00 0.0 l/m2 in 6 Std. -
Mi, 23.10. 8:00 0.0 l/m2 in 12 Std. -
Mi, 23.10. 2:00 0.0 l/m2 in 6 Std. -
Di, 22.10. 20:00 0.0 l/m2 in 12 Std. -
Di, 22.10. 14:00 0.0 l/m2 in 6 Std. -
Di, 22.10. 8:00 0.1 l/m2 in 12 Std. -
Di, 22.10. 2:00 0.1 l/m2 in 6 Std. Regen
Mo, 21.10. 20:00 0.3 l/m2 in 12 Std. -
Ortszeit Niederschlagsmenge Niederschlagsart
Mi, 23.10. 15:00 0.0 l/m2 in 1 Std. -
Mi, 23.10. 14:50 keine Meldung -
Mi, 23.10. 14:40 keine Meldung -
Mi, 23.10. 14:30 0.0 l/m2 in 1 Std. -
Mi, 23.10. 14:20 keine Meldung -
Mi, 23.10. 14:10 keine Meldung -
Mi, 23.10. 14:00 0.0 l/m2 in 1 Std. -
Mi, 23.10. 13:30 0.0 l/m2 in 1 Std. -
Mi, 23.10. 13:00 0.0 l/m2 in 1 Std. -
Mi, 23.10. 12:30 0.0 l/m2 in 1 Std. -
Mi, 23.10. 12:00 0.0 l/m2 in 1 Std. -
Ortszeit Stärke Spitze Richtung
km/h Bft. km/h Grad Sektor
Mi, 23.10. 14:00 4 1 11 350° N
Mi, 23.10. 8:00 0 0 14 - -
Mi, 23.10. 2:00 4 1 11 40° NO
Di, 22.10. 20:00 4 1 11 10° N
Di, 22.10. 14:00 4 1 18 30° NO
Di, 22.10. 8:00 6 1 15 280° W
Di, 22.10. 2:00 7 2 14 320° NW
Mo, 21.10. 20:00 4 1 11 280° W
Ortszeit Stärke Spitze Richtung
km/h Bft. km/h Grad Sektor
Mi, 23.10. 15:00 4 1 7 10° N
Mi, 23.10. 14:50 4 1 - 10° N
Mi, 23.10. 14:40 4 1 - 360° N
Mi, 23.10. 14:30 4 1 7 60° NO
Mi, 23.10. 14:20 4 1 - 60° NO
Mi, 23.10. 14:10 4 1 - 70° O
Mi, 23.10. 14:00 4 1 11 350° N
Mi, 23.10. 13:30 4 1 11 220° SW
Mi, 23.10. 13:00 4 1 11 190° S
Mi, 23.10. 12:30 7 2 11 190° S
Mi, 23.10. 12:00 4 1 11 90° O
Ortszeit Untergrenze Bedeckung Gattung
total tief tief mittel hoch
Mi, 23.10. 14:00 9000 m 6/8 0/8 - - -
Mi, 23.10. 8:00 120 m 8/8 8/8 - - -
Mi, 23.10. 2:00 360 m 8/8 8/8 - - -
Di, 22.10. 20:00 690 m 8/8 8/8 - - -
Di, 22.10. 14:00 510 m 8/8 8/8 - - -
Di, 22.10. 8:00 <30 m 8/8 0/8 - - -
Di, 22.10. 2:00 1290 m 8/8 6/8 - - -
Mo, 21.10. 20:00 660 m 8/8 8/8 - - -
Ortszeit Bedeckungsgrad in Achtel und Wolkenuntergrenze
Mi, 23.10. 15:00 6(10500m)
Mi, 23.10. 14:50 6(10500m)
Mi, 23.10. 14:40 4(10500m)
Mi, 23.10. 14:30 keine Wolken
Mi, 23.10. 14:20 keine Wolken
Mi, 23.10. 14:10 1(9000m)
Mi, 23.10. 14:00 2(9000m) 6(9000m)
Mi, 23.10. 13:30 5(9000m) 6(12000m)
Mi, 23.10. 13:00 1(9000m)
Mi, 23.10. 12:30 keine Wolken
Mi, 23.10. 12:00 3(270m)
Ortszeit Luftdruck NN (hPa) Tendenz (hPa in 3 Std.)
Mi, 23.10. 14:00 1014 - 1,3
Mi, 23.10. 8:00 1018 - 0,7
Mi, 23.10. 2:00 1019 - 1,8
Di, 22.10. 20:00 1022 + 0,2
Di, 22.10. 14:00 1023 - 0,6
Di, 22.10. 8:00 1023 + 0,4
Di, 22.10. 2:00 1023 + 0,5
Mo, 21.10. 20:00 1021 + 1,7
Ortszeit Luftdruck NN (hPa) Tendenz (hPa in 3 Std.)
Mi, 23.10. 15:00 1013 - 2,2
Mi, 23.10. 14:50 1013 keine Meldung
Mi, 23.10. 14:40 1013 keine Meldung
Mi, 23.10. 14:30 1014 - 1,9
Mi, 23.10. 14:20 1014 keine Meldung
Mi, 23.10. 14:10 1014 keine Meldung
Mi, 23.10. 14:00 1014 - 1,3
Mi, 23.10. 13:30 1015 - 1,3
Mi, 23.10. 13:00 1015 - 1,2
Mi, 23.10. 12:30 1016 - 0,8
Mi, 23.10. 12:00 1016 - 0,9
Ortszeit Schneehöhe (cm)
Mi, 23.10. 14:00 0
Mi, 23.10. 8:00 0
Mi, 23.10. 2:00 0
Di, 22.10. 20:00 0
Di, 22.10. 14:00 0
Di, 22.10. 8:00 0
Di, 22.10. 2:00 0
Mo, 21.10. 20:00 0
Ortszeit Schneehöhe (cm)
Mi, 23.10. 15:00 -
Mi, 23.10. 14:50 -
Mi, 23.10. 14:40 -
Mi, 23.10. 14:30 -
Mi, 23.10. 14:20 -
Mi, 23.10. 14:10 0
Mi, 23.10. 14:00 0
Mi, 23.10. 13:30 0
Mi, 23.10. 13:00 0
Mi, 23.10. 12:30 0
Mi, 23.10. 12:00 0
Link zu dieser Seite / Seite empfehlen

Das Wetter in ...